| time (UTC) | temp C | wind direction | speed KPH | gust KPH | rain 1hr cm | rain 24hr cm | rain mn cm | humidity % | barometer mb |
| 20260502170301 | 3 | 262 | 0.0 | 0.0 | 0.00 | 0.05 | 0.05 | 85 | 1017.5 |
| 20260502164249 | 3 | 1 | 0.0 | 0.0 | 0.00 | 0.05 | 0.05 | 85 | 1017.7 |
| 20260502163744 | 3 | 262 | 0.0 | 0.0 | 0.00 | 0.05 | 0.05 | 86 | 1017.8 |
| 20260502163241 | 3 | 266 | 0.0 | 0.0 | 0.00 | 0.05 | 0.05 | 86 | 1017.5 |
| 20260502162738 | 3 | 268 | 0.0 | 0.0 | 0.00 | 0.05 | 0.05 | 86 | 1017.9 |
| 20260502162235 | 3 | 5 | 1.6 | 1.6 | 0.00 | 0.05 | 0.05 | 86 | 1017.7 |
| 20260502161732 | 3 | 17 | 0.0 | 0.0 | 0.00 | 0.05 | 0.05 | 84 | 1017.8 |
| 20260502161228 | 3 | 305 | 0.0 | 0.0 | 0.00 | 0.05 | 0.05 | 83 | 1017.6 |
| 20260502160726 | 3 | 312 | 0.0 | 0.0 | 0.00 | 0.05 | 0.05 | 81 | 1017.8 |
| 20260502160225 | 4 | 53 | 0.0 | 0.0 | 0.00 | 0.05 | 0.05 | 80 | 1017.7 |
| 20260502152149 | 3 | 7 | 0.0 | 0.0 | 0.00 | 0.05 | 0.05 | 80 | 1017.6 |
| 20260502151646 | 3 | 6 | 0.0 | 0.0 | 0.00 | 0.05 | 0.05 | 81 | 1017.7 |
| 20260502151143 | 3 | 7 | 4.8 | 9.7 | 0.00 | 0.05 | 0.05 | 81 | 1017.6 |
| 20260502150641 | 3 | 38 | 0.0 | 1.6 | 0.00 | 0.05 | 0.05 | 81 | 1017.7 |
| 20260502150137 | 3 | 52 | 0.0 | 3.2 | 0.00 | 0.05 | 0.05 | 82 | 1017.6 |
| 20260502130526 | 2 | 264 | 0.0 | 0.0 | 0.00 | 0.05 | 0.05 | 91 | 1016.9 |
| 20260502123509 | 2 | 265 | 0.0 | 0.0 | 0.00 | 0.05 | 0.05 | 91 | 1016.4 |
| 20260502123005 | 2 | 261 | 0.0 | 0.0 | 0.00 | 0.05 | 0.05 | 91 | 1016.5 |
| 20260502122502 | 1 | 298 | 0.0 | 0.0 | 0.00 | 0.05 | 0.05 | 91 | 1016.9 |
| 20260502122000 | 1 | 255 | 0.0 | 0.0 | 0.00 | 0.05 | 0.05 | 91 | 1016.5 |
| 20260502121456 | 1 | 264 | 0.0 | 0.0 | 0.00 | 0.05 | 0.05 | 91 | 1016.5 |
| 20260502120954 | 1 | 287 | 0.0 | 0.0 | 0.00 | 0.05 | 0.05 | 90 | 1016.5 |
| 20260502120450 | 1 | 259 | 0.0 | 0.0 | 0.00 | 0.05 | 0.05 | 90 | 1016.6 |
| 20260502115445 | 1 | 289 | 0.0 | 1.6 | 0.00 | 0.05 | 0.05 | 90 | 1016.5 |
| 20260502114941 | 1 | 259 | 0.0 | 0.0 | 0.00 | 0.05 | 0.05 | 90 | 1016.6 |
| 20260502114438 | 1 | 261 | 0.0 | 0.0 | 0.00 | 0.05 | 0.05 | 90 | 1016.4 |
| 20260502113935 | 1 | 262 | 0.0 | 0.0 | 0.00 | 0.05 | 0.05 | 90 | 1016.6 |
| 20260502113432 | 1 | 262 | 0.0 | 0.0 | 0.00 | 0.05 | 0.05 | 90 | 1016.4 |
| 20260502112931 | 1 | 263 | 0.0 | 0.0 | 0.00 | 0.05 | 0.05 | 90 | 1016.6 |
| 20260502112428 | 1 | 256 | 0.0 | 0.0 | 0.00 | 0.05 | 0.05 | 90 | 1016.6 |
| 20260502111925 | 0 | 254 | 0.0 | 0.0 | 0.00 | 0.05 | 0.05 | 90 | 1016.1 |
| 20260502111422 | 1 | 255 | 0.0 | 0.0 | 0.00 | 0.05 | 0.05 | 90 | 1016.2 |
| 20260502110920 | 1 | 253 | 0.0 | 0.0 | 0.00 | 0.05 | 0.05 | 90 | 1016.1 |
| 20260502110417 | 1 | 252 | 0.0 | 0.0 | 0.00 | 0.05 | 0.05 | 90 | 1016.1 |
| 20260502105914 | 0 | 254 | 0.0 | 0.0 | 0.00 | 0.05 | 0.05 | 90 | 1016.2 |
| 20260502105412 | 0 | 266 | 0.0 | 0.0 | 0.00 | 0.05 | 0.05 | 91 | 1016.1 |
| 20260502104910 | 0 | 252 | 0.0 | 0.0 | 0.00 | 0.05 | 0.05 | 91 | 1016.1 |
| 20260502104407 | 0 | 255 | 0.0 | 0.0 | 0.00 | 0.05 | 0.05 | 91 | 1016.0 |
| 20260502103904 | 0 | 259 | 0.0 | 0.0 | 0.00 | 0.05 | 0.05 | 91 | 1016.2 |
| 20260502103402 | 0 | 254 | 0.0 | 0.0 | 0.00 | 0.05 | 0.05 | 91 | 1016.1 |
| 20260502102858 | 0 | 255 | 0.0 | 0.0 | 0.00 | 0.05 | 0.05 | 91 | 1016.1 |
| 20260502102355 | 0 | 250 | 0.0 | 0.0 | 0.00 | 0.05 | 0.05 | 91 | 1016.2 |
| 20260502101852 | 0 | 253 | 0.0 | 0.0 | 0.00 | 0.05 | 0.05 | 91 | 1016.3 |
| 20260502101350 | 0 | 259 | 0.0 | 0.0 | 0.00 | 0.05 | 0.05 | 92 | 1016.0 |
| 20260502100848 | 1 | 262 | 0.0 | 0.0 | 0.00 | 0.05 | 0.05 | 92 | 1016.1 |
| 20260502100347 | 1 | 257 | 0.0 | 0.0 | 0.00 | 0.05 | 0.05 | 92 | 1016.2 |
| 20260502091321 | 1 | 255 | 0.0 | 0.0 | 0.00 | 0.03 | 0.03 | 94 | 1015.9 |
| 20260502090819 | 1 | 255 | 0.0 | 0.0 | 0.00 | 0.03 | 0.03 | 94 | 1015.9 |
| 20260502090315 | 1 | 257 | 0.0 | 0.0 | 0.00 | 0.03 | 0.03 | 94 | 1015.8 |
| 20260502071211 | 3 | 252 | 0.0 | 0.0 | 0.00 | 0.03 | 0.03 | 95 | 1015.7 |
| 20260502070709 | 3 | 249 | 0.0 | 0.0 | 0.00 | 0.03 | 0.03 | 95 | 1015.5 |
| 20260502070206 | 3 | 254 | 0.0 | 0.0 | 0.00 | 0.03 | 0.03 | 95 | 1015.5 |
| 20260502065704 | 3 | 251 | 0.0 | 0.0 | 0.00 | 0.03 | 0.03 | 95 | 1015.6 |
| 20260502065202 | 3 | 255 | 0.0 | 0.0 | 0.00 | 0.03 | 0.03 | 95 | 1015.8 |
| 20260502064700 | 3 | 249 | 0.0 | 0.0 | 0.00 | 0.03 | 0.03 | 95 | 1015.6 |
| 20260502064157 | 3 | 276 | 0.0 | 0.0 | 0.00 | 0.03 | 0.03 | 95 | 1015.9 |
| 20260502063655 | 3 | 254 | 0.0 | 0.0 | 0.00 | 0.03 | 0.03 | 95 | 1015.7 |
| 20260502063153 | 3 | 259 | 0.0 | 0.0 | 0.00 | 0.03 | 0.03 | 95 | 1015.7 |
| 20260502062649 | 3 | 256 | 0.0 | 0.0 | 0.00 | 0.03 | 0.03 | 95 | 1015.9 |
| 20260502062147 | 3 | 255 | 0.0 | 0.0 | 0.00 | 0.03 | 0.03 | 95 | 1015.9 |
| 20260502061645 | 3 | 255 | 0.0 | 0.0 | 0.00 | 0.03 | 0.03 | 95 | 1015.9 |
| 20260502061143 | 3 | 255 | 0.0 | 0.0 | 0.00 | 0.03 | 0.03 | 95 | 1016.0 |
| 20260502060642 | 3 | 255 | 0.0 | 0.0 | 0.00 | 0.03 | 0.03 | 95 | 1015.8 |
| 20260502060140 | 3 | 255 | 0.0 | 0.0 | 0.00 | 0.03 | 0.03 | 95 | 1015.7 |
| 20260502055637 | 3 | 255 | 0.0 | 0.0 | 0.00 | 0.03 | 0.03 | 95 | 1016.0 |
| 20260502055135 | 3 | 255 | 0.0 | 0.0 | 0.00 | 0.03 | 0.03 | 95 | 1016.0 |
| 20260502054634 | 2 | 257 | 0.0 | 0.0 | 0.00 | 0.03 | 0.03 | 95 | 1016.2 |
| 20260502054131 | 3 | 257 | 0.0 | 0.0 | 0.00 | 0.03 | 0.03 | 95 | 1016.2 |
| 20260502053628 | 2 | 257 | 0.0 | 0.0 | 0.00 | 0.03 | 0.03 | 94 | 1016.2 |
| 20260502053125 | 2 | 257 | 0.0 | 0.0 | 0.00 | 0.03 | 0.03 | 94 | 1016.0 |
| 20260502052623 | 2 | 257 | 0.0 | 0.0 | 0.00 | 0.03 | 0.03 | 94 | 1016.3 |
| 20260502052121 | 2 | 257 | 0.0 | 0.0 | 0.00 | 0.03 | 0.03 | 94 | 1016.2 |
| 20260502051619 | 2 | 257 | 0.0 | 0.0 | 0.00 | 0.03 | 0.03 | 94 | 1016.1 |
| 20260502051117 | 2 | 257 | 0.0 | 0.0 | 0.00 | 0.03 | 0.03 | 94 | 1016.3 |
| 20260502050613 | 2 | 257 | 0.0 | 0.0 | 0.00 | 0.03 | 0.03 | 94 | 1016.3 |
| 20260502050110 | 3 | 258 | 0.0 | 0.0 | 0.00 | 0.03 | 0.03 | 94 | 1016.2 |
| 20260502045606 | 3 | 258 | 0.0 | 0.0 | 0.00 | 0.03 | 0.03 | 94 | 1016.3 |
| 20260502045104 | 2 | 258 | 0.0 | 0.0 | 0.00 | 0.03 | 0.03 | 93 | 1016.2 |
| 20260502044600 | 3 | 258 | 0.0 | 0.0 | 0.00 | 0.03 | 0.03 | 93 | 1016.0 |
| 20260502044057 | 3 | 258 | 0.0 | 0.0 | 0.00 | 0.03 | 0.03 | 93 | 1016.3 |
| 20260502043554 | 3 | 258 | 0.0 | 0.0 | 0.00 | 0.03 | 0.03 | 93 | 1016.3 |
| 20260502043050 | 3 | 258 | 0.0 | 0.0 | 0.00 | 0.03 | 0.03 | 93 | 1016.0 |
| 20260502042545 | 3 | 258 | 0.0 | 0.0 | 0.00 | 0.03 | 0.03 | 92 | 1016.3 |
| 20260502042043 | 3 | 258 | 0.0 | 0.0 | 0.18 | 0.03 | 0.03 | 92 | 1016.3 |
| 20260502041541 | 3 | 258 | 0.0 | 0.0 | 0.18 | 0.03 | 0.03 | 92 | 1016.2 |
| 20260502041037 | 3 | 258 | 0.0 | 0.0 | 0.00 | 0.00 | 0.00 | 91 | 1016.5 |
| 20260502040534 | 3 | 258 | 0.0 | 0.0 | 0.00 | 0.00 | 0.00 | 91 | 1016.5 |
| 20260502040031 | 3 | 258 | 0.0 | 0.0 | 0.00 | 1.07 | 1.07 | 91 | 1016.9 |
| 20260502035527 | 3 | 258 | 0.0 | 0.0 | 0.30 | 1.07 | 1.07 | 91 | 1016.5 |
| 20260502035025 | 3 | 259 | 0.0 | 0.0 | 0.71 | 1.07 | 1.07 | 91 | 1016.4 |
| 20260502034522 | 3 | 303 | 0.0 | 0.0 | 0.43 | 1.02 | 1.02 | 91 | 1016.9 |
| 20260502034021 | 3 | 296 | 1.6 | 3.2 | 0.00 | 0.94 | 0.94 | 91 | 1016.9 |
| 20260502033519 | 3 | 246 | 0.0 | 0.0 | 0.00 | 0.94 | 0.94 | 91 | 1016.8 |
| 20260502033016 | 3 | 239 | 0.0 | 0.0 | 0.00 | 0.94 | 0.94 | 91 | 1016.4 |
| 20260502032511 | 3 | 239 | 0.0 | 0.0 | 0.00 | 0.94 | 0.94 | 91 | 1016.6 |
| 20260502032009 | 3 | 239 | 0.0 | 0.0 | 0.00 | 0.94 | 0.94 | 91 | 1016.5 |
| 20260502031506 | 3 | 239 | 0.0 | 0.0 | 0.00 | 0.94 | 0.94 | 91 | 1016.2 |
| 20260502031004 | 3 | 239 | 0.0 | 0.0 | 0.00 | 0.94 | 0.94 | 90 | 1016.5 |
| 20260502030503 | 3 | 239 | 0.0 | 0.0 | 0.00 | 0.94 | 0.94 | 90 | 1016.4 |
| 20260502030000 | 3 | 239 | 0.0 | 0.0 | 0.00 | 0.94 | 0.94 | 90 | 1016.0 |
| 20260502025457 | 3 | 239 | 0.0 | 0.0 | 0.00 | 0.94 | 0.94 | 89 | 1016.0 |
| 20260502024955 | 3 | 238 | 0.0 | 0.0 | 0.00 | 0.94 | 0.94 | 89 | 1015.9 |
| 20260502024452 | 3 | 238 | 0.0 | 0.0 | 0.00 | 0.94 | 0.94 | 89 | 1016.1 |
| 20260502023950 | 3 | 238 | 0.0 | 0.0 | 0.00 | 0.94 | 0.94 | 88 | 1016.1 |
| 20260502023448 | 3 | 238 | 0.0 | 0.0 | 0.00 | 0.94 | 0.94 | 87 | 1016.0 |
| 20260502022945 | 4 | 238 | 0.0 | 0.0 | 0.00 | 0.94 | 0.94 | 87 | 1015.8 |
| 20260502022441 | 5 | 238 | 0.0 | 0.0 | 0.00 | 0.94 | 0.94 | 86 | 1016.1 |
| 20260502021938 | 5 | 238 | 0.0 | 0.0 | 0.00 | 0.94 | 0.94 | 86 | 1015.9 |
| 20260502021436 | 5 | 238 | 0.0 | 0.0 | 0.00 | 0.94 | 0.94 | 85 | 1016.0 |
| 20260502020933 | 5 | 238 | 0.0 | 0.0 | 0.00 | 0.94 | 0.94 | 85 | 1016.0 |
| 20260502020431 | 5 | 238 | 0.0 | 0.0 | 0.00 | 0.94 | 0.94 | 84 | 1016.1 |
| 20260502015927 | 5 | 233 | 0.0 | 0.0 | 0.00 | 0.94 | 0.94 | 84 | 1016.1 |
| 20260502015425 | 5 | 260 | 0.0 | 0.0 | 0.00 | 0.94 | 0.94 | 83 | 1016.2 |
| 20260502014921 | 5 | 267 | 0.0 | 0.0 | 0.00 | 0.94 | 0.94 | 83 | 1016.0 |
| 20260502014419 | 5 | 289 | 0.0 | 0.0 | 0.00 | 0.94 | 0.94 | 84 | 1016.2 |
| 20260502013915 | 5 | 266 | 0.0 | 0.0 | 0.00 | 0.94 | 0.94 | 85 | 1016.1 |
| 20260502013410 | 5 | 264 | 0.0 | 0.0 | 0.00 | 0.94 | 0.94 | 85 | 1016.0 |
| 20260502012907 | 5 | 264 | 0.0 | 0.0 | 0.00 | 0.94 | 0.94 | 85 | 1015.9 |
| 20260502012405 | 5 | 264 | 0.0 | 0.0 | 0.00 | 0.94 | 0.94 | 84 | 1015.6 |
| 20260502011902 | 5 | 264 | 0.0 | 0.0 | 0.00 | 0.94 | 0.94 | 84 | 1015.6 |
| 20260502011358 | 5 | 264 | 0.0 | 0.0 | 0.00 | 0.94 | 0.94 | 84 | 1015.5 |
| 20260502010855 | 5 | 264 | 0.0 | 0.0 | 0.00 | 0.94 | 0.94 | 84 | 1015.4 |
| 20260502010352 | 5 | 264 | 0.0 | 0.0 | 0.00 | 0.94 | 0.94 | 83 | 1015.4 |
| 20260502005848 | 5 | 264 | 0.0 | 0.0 | 0.00 | 0.94 | 0.94 | 83 | 1015.6 |
| 20260502005347 | 5 | 264 | 0.0 | 0.0 | 0.00 | 0.94 | 0.94 | 83 | 1015.5 |
| 20260502004844 | 5 | 264 | 0.0 | 0.0 | 0.00 | 0.94 | 0.94 | 83 | 1015.6 |
| 20260502004340 | 5 | 264 | 0.0 | 0.0 | 0.00 | 0.94 | 0.94 | 83 | 1015.3 |
| 20260502003838 | 5 | 264 | 0.0 | 0.0 | 0.00 | 0.94 | 0.94 | 83 | 1015.5 |
| 20260502003334 | 5 | 264 | 0.0 | 0.0 | 0.00 | 0.94 | 0.94 | 83 | 1015.5 |
| 20260502002831 | 5 | 264 | 0.0 | 0.0 | 0.00 | 0.94 | 0.94 | 83 | 1015.3 |
| 20260502002328 | 6 | 264 | 0.0 | 0.0 | 0.00 | 0.94 | 0.94 | 83 | 1015.4 |
| 20260502001825 | 5 | 264 | 0.0 | 0.0 | 0.00 | 0.94 | 0.94 | 83 | 1015.4 |
| 20260502001323 | 6 | 264 | 0.0 | 0.0 | 0.00 | 0.94 | 0.94 | 83 | 1015.2 |
| 20260502000820 | 6 | 264 | 0.0 | 0.0 | 0.00 | 0.94 | 0.94 | 82 | 1014.9 |
| 20260502000318 | 6 | 264 | 0.0 | 0.0 | 0.00 | 0.94 | 0.94 | 82 | 1015.1 |
| 20260501235814 | 6 | 266 | 0.0 | 0.0 | 0.00 | 0.94 | 0.94 | 82 | 1014.9 |
| 20260501235310 | 6 | 266 | 0.0 | 0.0 | 0.00 | 0.94 | 0.94 | 82 | 1014.8 |
| 20260501234805 | 6 | 266 | 0.0 | 0.0 | 0.00 | 0.94 | 0.94 | 81 | 1014.9 |
| 20260501234303 | 6 | 266 | 0.0 | 0.0 | 0.00 | 0.94 | 0.94 | 81 | 1014.7 |
| 20260501233801 | 6 | 270 | 0.0 | 0.0 | 0.00 | 0.94 | 0.94 | 80 | 1014.9 |
| 20260501233258 | 6 | 268 | 0.0 | 0.0 | 0.00 | 0.94 | 0.94 | 80 | 1014.6 |
| 20260501232754 | 6 | 274 | 0.0 | 0.0 | 0.00 | 0.94 | 0.94 | 80 | 1014.7 |
| 20260501232251 | 6 | 277 | 0.0 | 0.0 | 0.00 | 0.94 | 0.94 | 79 | 1014.5 |
| 20260501231749 | 6 | 266 | 0.0 | 0.0 | 0.00 | 0.94 | 0.94 | 79 | 1014.5 |
| 20260501231247 | 6 | 271 | 0.0 | 0.0 | 0.00 | 0.94 | 0.94 | 79 | 1014.5 |
| 20260501230745 | 6 | 275 | 0.0 | 0.0 | 0.00 | 0.94 | 0.94 | 79 | 1014.6 |
| 20260501230243 | 6 | 309 | 0.0 | 0.0 | 0.00 | 0.94 | 0.94 | 80 | 1014.6 |
| 20260501225740 | 6 | 272 | 0.0 | 0.0 | 0.00 | 0.94 | 0.94 | 80 | 1014.8 |
| 20260501225237 | 6 | 264 | 0.0 | 0.0 | 0.00 | 0.94 | 0.94 | 80 | 1014.8 |
| 20260501224733 | 6 | 268 | 0.0 | 0.0 | 0.00 | 0.94 | 0.94 | 79 | 1014.8 |
| 20260501224231 | 6 | 265 | 0.0 | 0.0 | 0.00 | 0.94 | 0.94 | 79 | 1014.9 |
| 20260501223727 | 6 | 263 | 0.0 | 0.0 | 0.00 | 0.94 | 0.94 | 79 | 1014.7 |
| 20260501223224 | 7 | 273 | 0.0 | 0.0 | 0.00 | 0.94 | 0.94 | 79 | 1015.0 |
| 20260501222720 | 7 | 329 | 0.0 | 0.0 | 0.00 | 0.94 | 0.94 | 78 | 1014.8 |
| 20260501222217 | 7 | 307 | 0.0 | 0.0 | 0.00 | 0.94 | 0.94 | 77 | 1014.8 |
| 20260501221714 | 7 | 262 | 0.0 | 0.0 | 0.00 | 0.94 | 0.94 | 77 | 1014.4 |
| 20260501221211 | 6 | 265 | 0.0 | 0.0 | 0.00 | 0.94 | 0.94 | 78 | 1014.6 |
| 20260501220709 | 7 | 334 | 0.0 | 0.0 | 0.00 | 0.94 | 0.94 | 78 | 1014.5 |
| 20260501220206 | 6 | 272 | 0.0 | 0.0 | 0.00 | 0.94 | 0.94 | 80 | 1014.4 |
| 20260501215703 | 6 | 296 | 0.0 | 1.6 | 0.00 | 0.94 | 0.94 | 79 | 1014.7 |
| 20260501215158 | 6 | 273 | 0.0 | 0.0 | 0.00 | 0.94 | 0.94 | 79 | 1014.3 |
| 20260501214653 | 6 | 279 | 0.0 | 0.0 | 0.00 | 0.94 | 0.94 | 80 | 1014.4 |
| 20260501214149 | 6 | 273 | 0.0 | 0.0 | 0.00 | 0.94 | 0.94 | 80 | 1014.4 |
| 20260501213646 | 6 | 295 | 3.2 | 9.7 | 0.00 | 0.94 | 0.94 | 80 | 1014.2 |
| 20260501213142 | 6 | 272 | 0.0 | 0.0 | 0.00 | 0.94 | 0.94 | 80 | 1014.4 |
| 20260501212638 | 6 | 5 | 1.6 | 9.7 | 0.00 | 0.94 | 0.94 | 80 | 1014.4 |
| 20260501212135 | 6 | 324 | 3.2 | 9.7 | 0.00 | 0.94 | 0.94 | 81 | 1014.4 |
| 20260501211632 | 6 | 258 | 0.0 | 0.0 | 0.00 | 0.94 | 0.94 | 82 | 1014.2 |
| 20260501211130 | 6 | 277 | 0.0 | 0.0 | 0.00 | 0.94 | 0.94 | 82 | 1014.3 |
| 20260501210626 | 5 | 320 | 0.0 | 0.0 | 0.00 | 0.94 | 0.94 | 84 | 1014.1 |
| 20260501210123 | 5 | 281 | 0.0 | 1.6 | 0.00 | 0.94 | 0.94 | 85 | 1014.2 |
| 20260501205619 | 5 | 274 | 0.0 | 0.0 | 0.00 | 0.94 | 0.94 | 87 | 1014.3 |
| 20260501205117 | 5 | 359 | 1.6 | 4.8 | 0.00 | 0.94 | 0.94 | 87 | 1014.0 |
| 20260501204613 | 5 | 323 | 0.0 | 1.6 | 0.00 | 0.94 | 0.94 | 88 | 1014.1 |
| 20260501204109 | 5 | 313 | 0.0 | 0.0 | 0.00 | 0.94 | 0.94 | 88 | 1013.8 |
| 20260501203606 | 5 | 3 | 0.0 | 0.0 | 0.00 | 0.94 | 0.94 | 89 | 1013.8 |
| 20260501203104 | 5 | 335 | 0.0 | 0.0 | 0.00 | 0.94 | 0.94 | 89 | 1014.0 |
| 20260501202600 | 5 | 270 | 0.0 | 0.0 | 0.00 | 0.94 | 0.94 | 89 | 1014.0 |
| 20260501202057 | 5 | 312 | 0.0 | 0.0 | 0.00 | 0.94 | 0.94 | 90 | 1013.7 |
| 20260501201554 | 5 | 337 | 0.0 | 0.0 | 0.00 | 0.94 | 0.94 | 90 | 1013.8 |
| 20260501201050 | 5 | 334 | 0.0 | 0.0 | 0.00 | 0.94 | 0.94 | 90 | 1013.5 |
| 20260501200548 | 5 | 330 | 1.6 | 3.2 | 0.00 | 0.94 | 0.94 | 91 | 1013.5 |
| 20260501200045 | 5 | 273 | 0.0 | 0.0 | 0.00 | 0.94 | 0.94 | 91 | 1013.3 |
| 20260501195542 | 5 | 272 | 0.0 | 0.0 | 0.00 | 0.94 | 0.94 | 91 | 1013.2 |
| 20260501195038 | 5 | 333 | 0.0 | 0.0 | 0.00 | 0.94 | 0.94 | 91 | 1013.2 |
| 20260501194533 | 5 | 336 | 0.0 | 0.0 | 0.00 | 0.94 | 0.94 | 91 | 1013.5 |
| 20260501194029 | 5 | 276 | 0.0 | 0.0 | 0.00 | 0.94 | 0.94 | 91 | 1013.0 |
| 20260501193527 | 5 | 279 | 0.0 | 0.0 | 0.00 | 0.94 | 0.94 | 92 | 1013.1 |
| 20260501193026 | 5 | 7 | 0.0 | 0.0 | 0.00 | 0.94 | 0.94 | 92 | 1013.1 |
| 20260501192522 | 5 | 270 | 0.0 | 0.0 | 0.18 | 0.94 | 0.94 | 92 | 1013.2 |
| 20260501192020 | 5 | 347 | 0.0 | 0.0 | 0.18 | 0.94 | 0.94 | 92 | 1013.0 |
| 20260501191517 | 5 | 268 | 0.0 | 0.0 | 0.00 | 0.91 | 0.91 | 92 | 1012.8 |
| 20260501191014 | 5 | 280 | 0.0 | 1.6 | 0.00 | 0.91 | 0.91 | 92 | 1013.1 |
| 20260501190509 | 5 | 287 | 0.0 | 0.0 | 0.00 | 0.91 | 0.91 | 92 | 1013.0 |
| 20260501190005 | 5 | 340 | 0.0 | 1.6 | 0.00 | 0.91 | 0.91 | 91 | 1013.0 |
| 20260501185501 | 5 | 1 | 6.4 | 16.1 | 0.13 | 0.91 | 0.91 | 91 | 1012.9 |
| 20260501184957 | 5 | 10 | 1.6 | 4.8 | 0.13 | 0.91 | 0.91 | 92 | 1012.8 |
| 20260501184454 | 5 | 287 | 0.0 | 0.0 | 0.00 | 0.89 | 0.89 | 92 | 1012.6 |
| 20260501183948 | 5 | 22 | 1.6 | 3.2 | 0.00 | 0.89 | 0.89 | 91 | 1012.7 |
| 20260501183446 | 5 | 32 | 0.0 | 0.0 | 0.00 | 0.89 | 0.89 | 91 | 1012.7 |
| 20260501182942 | 5 | 320 | 0.0 | 0.0 | 0.00 | 0.89 | 0.89 | 91 | 1012.6 |
| 20260501182439 | 5 | 277 | 0.0 | 0.0 | 0.00 | 0.89 | 0.89 | 91 | 1012.6 |
| 20260501181936 | 4 | 273 | 0.0 | 0.0 | 0.00 | 0.89 | 0.89 | 91 | 1012.6 |
| 20260501181433 | 5 | 332 | 0.0 | 1.6 | 0.00 | 0.89 | 0.89 | 92 | 1012.4 |
| 20260501180930 | 4 | 318 | 0.0 | 0.0 | 0.00 | 0.89 | 0.89 | 92 | 1012.4 |
| 20260501180427 | 4 | 281 | 0.0 | 0.0 | 0.00 | 0.89 | 0.89 | 92 | 1012.4 |
| 20260501175923 | 4 | 310 | 0.0 | 0.0 | 0.00 | 0.89 | 0.89 | 92 | 1012.4 |
| 20260501175421 | 4 | 274 | 1.6 | 4.8 | 0.00 | 0.89 | 0.89 | 92 | 1012.1 |
| 20260501174917 | 5 | 326 | 3.2 | 9.7 | 0.18 | 0.89 | 0.89 | 92 | 1012.1 |
| 20260501174415 | 5 | 8 | 1.6 | 3.2 | 0.18 | 0.89 | 0.89 | 92 | 1012.1 |
| 20260501173912 | 5 | 328 | 4.8 | 9.7 | 0.18 | 0.89 | 0.89 | 92 | 1012.2 |
| 20260501173410 | 5 | 288 | 0.0 | 0.0 | 0.00 | 0.86 | 0.86 | 92 | 1012.2 |
| 20260501172905 | 5 | 278 | 0.0 | 0.0 | 0.00 | 0.86 | 0.86 | 92 | 1012.0 |
| 20260501172400 | 5 | 350 | 4.8 | 12.9 | 0.00 | 0.86 | 0.86 | 91 | 1011.9 |